Location: Malvern Link
(52.1333°N, 2.3000°W)
Time: 15:28:10
(UTC+00:00)

SO-50 - Pass Details

Date: 06 July 2022
Orbit: 585 x 698 km, 64.6° (Epoch: 11 August)

Event Time Altitude Azimuth Distance (km) Brightness Sun altitude
Rises 02:21:04 0° 278° (W) 3,020 ? -10.2°
Reaches altitude 10° 02:23:50 10° 294° (WNW) 2,126 ? -10.0°
Maximum altitude 02:27:37 22° 345° (NNW) 1,493 ? -9.7°
Drops below altitude 10° 02:31:28 10° 36° (NE) 2,163 ? -9.4°
Sets 02:34:19 0° 52° (NE) 3,087 ? -9.1°
